AU298 Weather Reports


Display with metric or nautical units.
time (UTC)temp
F
wind
direction
speed
MPH
gust
MPH
rain 1hr
in
rain 24hr
in
rain mn
in
humidity
%
barometer
mb
20260503213511 60 282 8.0 2.0 0.00 0.00 0.00 35 1004.5
20260503213011 59 326 9.0 2.0 0.00 0.00 0.00 35 1004.7
20260503212512 59 310 8.0 2.0 0.00 0.00 0.00 35 1004.7
20260503212012 59 307 9.0 2.0 0.00 0.00 0.00 35 1004.6
20260503211511 59 298 4.0 1.0 0.00 0.00 0.00 36 1004.7
20260503211012 59 275 10.0 2.0 0.00 0.00 0.00 35 1004.8
20260503210512 59 326 13.0 2.0 0.00 0.00 0.00 34 1004.7
20260503210012 59 249 3.0 2.0 0.00 0.00 0.00 36 1004.8
20260503205511 59 292 13.0 2.0 0.00 0.00 0.00 37 1004.9
20260503205012 58 328 9.0 2.0 0.00 0.00 0.00 36 1004.9
20260503204012 58 312 11.0 2.0 0.00 0.00 0.00 36 1005.1
20260503203012 58 259 16.0 2.0 0.00 0.00 0.00 36 1005.1
20260503202011 58 256 6.0 2.0 0.00 0.00 0.00 34 1005.4
20260503201512 58 214 6.0 2.0 0.00 0.00 0.00 35 1005.2
20260503200512 58 293 12.0 2.0 0.00 0.00 0.00 34 1005.5
20260503200012 58 252 5.0 2.0 0.00 0.00 0.00 35 1005.7
20260503195012 57 304 4.0 1.0 0.00 0.00 0.00 36 1005.7
20260503194511 58 281 13.0 1.0 0.00 0.00 0.00 35 1005.8
20260503194011 58 290 4.0 2.0 0.00 0.00 0.00 33 1005.9
20260503193512 57 326 7.0 1.0 0.00 0.00 0.00 33 1005.9
20260503193012 58 302 7.0 1.0 0.00 0.00 0.00 32 1006.1
20260503192512 57 264 7.0 1.0 0.00 0.00 0.00 35 1005.9
20260503192013 57 251 8.0 1.0 0.00 0.00 0.00 34 1006.0
20260503191511 57 305 6.0 2.0 0.00 0.00 0.00 34 1006.1
20260503191011 57 283 3.0 2.0 0.00 0.00 0.00 33 1006.2
20260503190511 57 325 5.0 2.0 0.00 0.00 0.00 35 1006.2
20260503190011 56 286 8.0 2.0 0.00 0.00 0.00 31 1006.4
20260503185012 56 13 4.0 2.0 0.00 0.00 0.00 32 1006.5
20260503184512 56 326 6.0 2.0 0.00 0.00 0.00 37 1006.6
20260503184012 55 300 7.0 2.0 0.00 0.00 0.00 31 1006.6
20260503183512 55 340 13.0 2.0 0.00 0.00 0.00 31 1006.7
20260503183011 56 291 13.0 2.0 0.00 0.00 0.00 31 1006.7
20260503182511 55 326 6.0 2.0 0.00 0.00 0.00 29 1006.7
20260503182012 56 323 9.0 2.0 0.00 0.00 0.00 30 1006.7
20260503181512 55 281 16.0 2.0 0.00 0.00 0.00 28 1006.8
20260503181013 54 312 9.0 2.0 0.00 0.00 0.00 28 1006.9
20260503180512 54 337 10.0 2.0 0.00 0.00 0.00 29 1006.8
20260503180011 54 281 8.0 2.0 0.00 0.00 0.00 26 1006.8
20260503175512 54 276 11.0 2.0 0.00 0.00 0.00 28 1006.9
20260503174512 55 316 7.0 2.0 0.00 0.00 0.00 31 1007.0
20260503174012 54 340 3.0 2.0 0.00 0.00 0.00 30 1007.0
20260503173512 54 290 10.0 2.0 0.00 0.00 0.00 33 1007.1
20260503172512 54 322 6.0 2.0 0.00 0.00 0.00 34 1007.1
20260503172011 55 311 5.0 2.0 0.00 0.00 0.00 36 1007.2
20260503171512 54 330 12.0 2.0 0.00 0.00 0.00 35 1007.1
20260503171012 54 289 2.0 1.0 0.00 0.00 0.00 35 1007.1
20260503170512 55 305 6.0 1.0 0.00 0.00 0.00 34 1007.3
20260503151011 51 326 10.0 2.0 0.00 0.00 0.00 40 1007.4
20260503150512 52 338 5.0 1.0 0.00 0.00 0.00 45 1007.4
20260503131011 46 334 3.0 1.0 0.00 0.00 0.00 81 1007.3
20260503130511 45 329 3.0 1.0 0.00 0.00 0.00 82 1007.3
20260503110512 41 274 0.0 0.0 0.00 0.00 0.00 89 1007.2
20260503090511 43 237 0.0 0.0 0.00 0.00 0.00 87 1008.0
20260503081511 44 237 0.0 0.0 0.00 0.00 0.00 84 1008.2
20260503081011 45 237 0.0 0.0 0.00 0.00 0.00 83 1008.2
20260503080512 45 237 0.0 0.0 0.00 0.00 0.00 83 1008.2
20260503072512 46 188 0.0 0.0 0.00 0.00 0.00 82 1008.6
20260503072012 46 241 0.0 0.0 0.00 0.00 0.00 82 1008.7
20260503071511 46 243 0.0 0.0 0.00 0.00 0.00 82 1008.8
20260503071011 46 243 0.0 0.0 0.00 0.00 0.00 81 1008.7
20260503070511 47 243 0.0 0.0 0.00 0.00 0.00 81 1008.7
20260503054012 48 214 0.0 0.0 0.00 0.00 0.00 78 1009.3
20260503053511 48 208 1.0 0.0 0.00 0.00 0.00 78 1009.3
20260503053012 48 165 0.0 0.0 0.00 0.00 0.00 77 1009.3
20260503052512 48 204 1.0 0.0 0.00 0.00 0.00 77 1009.4
20260503052011 48 214 3.0 0.0 0.00 0.00 0.00 77 1009.4
20260503051511 48 199 1.0 0.0 0.00 0.00 0.00 77 1009.4
20260503051011 49 217 1.0 0.0 0.00 0.00 0.00 76 1008.5
20260503050512 49 198 0.0 0.0 0.00 0.00 0.00 76 1008.6
20260503045011 49 209 0.0 0.0 0.00 0.00 0.00 75 1008.5
20260503044511 49 202 0.0 0.0 0.00 0.00 0.00 75 1008.6
20260503044011 49 195 0.0 0.0 0.00 0.00 0.00 75 1008.8
20260503043511 49 254 0.0 0.0 0.00 0.00 0.00 74 1008.8
20260503043012 49 254 0.0 0.0 0.00 0.00 0.00 74 1008.9
20260503042511 49 254 0.0 0.0 0.00 0.00 0.00 74 1009.0
20260503042011 49 254 0.0 0.0 0.00 0.00 0.00 74 1008.8
20260503041511 49 254 0.0 0.0 0.00 0.00 0.00 74 1009.0
20260503040011 50 288 1.0 0.0 0.00 0.00 0.00 73 1009.2
20260503035011 50 293 0.0 0.0 0.00 0.00 0.00 73 1009.2
20260503034511 50 301 2.0 1.0 0.00 0.00 0.00 72 1009.2
20260503034012 50 264 2.0 1.0 0.00 0.00 0.00 72 1009.4
20260503033512 50 279 1.0 1.0 0.00 0.00 0.00 71 1009.4
20260503033011 50 237 5.0 1.0 0.00 0.00 0.00 71 1009.6
20260503032011 51 212 2.0 1.0 0.00 0.00 0.00 70 1009.5
20260503031511 51 306 5.0 1.0 0.00 0.00 0.00 70 1009.6
20260503031012 51 280 2.0 1.0 0.00 0.00 0.00 70 1009.7
20260503030511 52 262 7.0 1.0 0.00 0.00 0.00 69 1009.8
20260503030012 52 255 3.0 1.0 0.00 0.00 0.00 68 1009.8
20260503025511 52 277 2.0 1.0 0.00 0.00 0.00 68 1009.9
20260503025011 52 264 2.0 1.0 0.00 0.00 0.00 68 1010.0
20260503024011 52 284 2.0 1.0 0.00 0.00 0.00 68 1010.1
20260503022511 53 323 5.0 1.0 0.00 0.00 0.00 64 1010.0
20260503022011 53 239 3.0 2.0 0.00 0.00 0.00 63 1010.0
20260503021011 54 286 4.0 1.0 0.00 0.00 0.00 60 1009.9
20260503020511 54 297 6.0 1.0 0.00 0.00 0.00 58 1009.9
20260503020011 55 283 8.0 1.0 0.00 0.00 0.00 57 1009.8
20260503015511 55 289 4.0 1.0 0.00 0.00 0.00 57 1009.7
20260503015011 55 278 4.0 1.0 0.00 0.00 0.00 56 1009.7
20260503014512 55 268 6.0 1.0 0.00 0.00 0.00 55 1009.7
20260503014011 55 304 3.0 1.0 0.00 0.00 0.00 54 1009.6
20260503013511 56 304 5.0 1.0 0.00 0.00 0.00 53 1009.6
20260503013011 56 261 6.0 1.0 0.00 0.00 0.00 53 1009.5
20260503012511 56 297 6.0 1.0 0.00 0.00 0.00 52 1009.6
20260503012011 56 297 6.0 1.0 0.00 0.00 0.00 51 1009.4
20260503011512 56 268 9.0 1.0 0.00 0.00 0.00 50 1009.4
20260503011011 56 283 3.0 1.0 0.00 0.00 0.00 50 1009.4
20260503010011 57 311 2.0 1.0 0.00 0.00 0.00 48 1009.4
20260503005511 57 314 8.0 1.0 0.00 0.00 0.00 47 1009.2
20260503005012 57 291 3.0 1.0 0.00 0.00 0.00 45 1009.2
20260503003512 58 285 1.0 0.0 0.00 0.00 0.00 41 1009.2
20260503003011 58 274 0.0 0.0 0.00 0.00 0.00 44 1009.3
20260503002511 58 250 0.0 0.0 0.00 0.00 0.00 41 1009.3
20260503002011 58 279 0.0 0.0 0.00 0.00 0.00 41 1009.3
20260503001511 58 268 1.0 0.0 0.00 0.00 0.00 41 1009.4
20260503001011 58 239 1.0 1.0 0.00 0.00 0.00 41 1009.5
20260503000512 59 308 1.0 1.0 0.00 0.00 0.00 40 1009.5
20260503000011 59 326 1.0 1.0 0.00 0.00 0.00 39 1009.5
20260502235511 59 289 2.0 1.0 0.00 0.00 0.00 40 1009.6
20260502235011 59 301 1.0 1.0 0.00 0.00 0.00 39 1009.7
20260502234511 59 325 2.0 1.0 0.00 0.00 0.00 40 1009.8
20260502233511 59 302 1.0 1.0 0.00 0.00 0.00 38 1009.8
20260502233011 59 293 6.0 1.0 0.00 0.00 0.00 38 1009.9
20260502232511 59 297 6.0 1.0 0.00 0.00 0.00 37 1010.0
20260502231511 60 214 0.0 1.0 0.00 0.00 0.00 36 1009.9
20260502231011 60 192 1.0 1.0 0.00 0.00 0.00 36 1010.0
20260502230511 60 210 0.0 0.0 0.00 0.00 0.00 37 1010.1
20260502225511 60 141 0.0 0.0 0.00 0.00 0.00 36 1010.2
20260502225011 60 167 1.0 0.0 0.00 0.00 0.00 36 1010.2
20260502224511 60 190 3.0 0.0 0.00 0.00 0.00 35 1010.3
20260502224011 60 293 2.0 1.0 0.00 0.00 0.00 35 1010.4
20260502223512 60 264 2.0 1.0 0.00 0.00 0.00 36 1010.5
20260502223012 60 303 6.0 1.0 0.00 0.00 0.00 35 1010.5
20260502222511 60 264 2.0 1.0 0.00 0.00 0.00 35 1010.6
20260502222012 59 220 1.0 1.0 0.00 0.00 0.00 38 1010.6
20260502221512 59 295 3.0 1.0 0.00 0.00 0.00 36 1010.7
20260502221011 60 246 3.0 1.0 0.00 0.00 0.00 37 1010.8
20260502220511 59 323 5.0 1.0 0.00 0.00 0.00 36 1010.8
20260502220012 59 242 0.0 1.0 0.00 0.00 0.00 36 1010.8
20260502215011 59 263 2.0 1.0 0.00 0.00 0.00 35 1011.0
20260502214511 60 230 11.0 1.0 0.00 0.00 0.00 35 1011.1
20260502214011 60 309 3.0 1.0 0.00 0.00 0.00 36 1011.0